Вернуться в каталог

NAVSTAR 67

USA 239

АктивенНавигацияHEO
NORAD 38833·PAYLOAD·🇺🇸 United States

Запущен Oct 4, 2012 с Cape Canaveral Space Force Station

Loading…

Ближайшие Пролёты (ближайшие 24 часа)

TLE

СвежийSource: CelesTrak SupGP

Эпоха: Sep 17, 2026, 16:38 UTC

1 38833C 12053A   26260.69312500  .00000000  00000+0  00000+0 0  2607
2 38833  53.5981 139.8074 0185865  67.4804  35.8282  2.00557287    17

Отслеживайте NAVSTAR 67 в реальном времени с AllMySat

Download on the App Store